Flag for U.S.A. Weather past 2 weeks in Lansing, Michigan, U.S.A.

Now
46 °F

Fog.


Feels Like: 46 °F
Forecast: 41 / 57 °F
Wind: No wind

Location: Capital City Airport


UV Index: 5 (Moderate)

Visibility: 5 mi


Pressure: 30.25 "Hg

Humidity: 89%

Dew point: 43 °F

Location of LansingLocation

Historic Weather in Lansing

°F

Lansing temperature yesterday

Maximum temperature yesterday: 65 °F (at 4:53 PM)
Minimum temperature yesterday: 33 °F (at 1:53 AM)
Average temperature yesterday: 48 °F

Past Weeks' High & Low Weather Summary

 TemperatureHumidityPressure
High71 °F (Apr 12, 12:53 PM)100% (Apr 4, 10:53 AM)30.45 "Hg (Apr 4, 10:53 AM)
Low21 °F (Apr 16, 5:53 AM)19% (Apr 11, 2:53 PM)29.38 "Hg (Apr 14, 6:53 AM)
Average45 °F59%29.94 "Hg
* Reported Apr 3 4:53 AM — Apr 18 4:53 AM, Lansing, Weather by CustomWeather, © 2014

Note: Actual official high and low records may vary slightly from our data, if they occured in-between our weather recording intervals... More about our weather records

Advertising

Historic Weather Conditions — Data for Previous 24 hours

 ConditionsComfort  
Time TempWeatherWind HumidityBarometerVisibility
4:53 AM
Apr 18
46 °FFog.No wind89%30.25 "Hg5 mi
3:53 AM47 °FLight rain. Overcast.No wind77%30.25 "Hg8 mi
2:53 AM48 °FLight rain. Overcast.No wind71%30.26 "Hg8 mi
1:53 AM48 °FMostly cloudy.No wind66%30.25 "Hg10 mi
12:53 AM48 °FPassing clouds.No wind63%30.25 "Hg10 mi
11:53 PM
Apr 17
50 °FClear.No wind59%30.25 "Hg10 mi
10:53 PM52 °FClear.6 mph55%30.26 "Hg10 mi
9:53 PM54 °FClear.5 mph51%30.25 "Hg10 mi
8:53 PM54 °FSunny.7 mph51%30.23 "Hg10 mi
7:53 PM61 °FSunny.12 mph36%30.21 "Hg10 mi
6:53 PM62 °FPassing clouds.15 mph34%30.20 "Hg10 mi
5:53 PM64 °FPassing clouds.18 mph29%30.20 "Hg10 mi
4:53 PM65 °FSunny.17 mph28%30.20 "Hg10 mi
3:53 PM64 °FSunny.18 mph28%30.21 "Hg10 mi
2:53 PM62 °FSunny.15 mph29%30.22 "Hg10 mi
1:53 PM60 °FSunny.14 mph30%30.23 "Hg10 mi
12:53 PM56 °FSunny.12 mph33%30.26 "Hg10 mi
11:53 AM53 °FSunny.13 mph37%30.28 "Hg10 mi
10:53 AM48 °FSunny.14 mph43%30.29 "Hg10 mi
9:53 AM43 °FSunny.14 mph51%30.31 "Hg10 mi
8:53 AM37 °FSunny.15 mph65%30.32 "Hg10 mi
7:53 AM34 °FSunny.13 mph70%30.32 "Hg10 mi
6:53 AM33 °FClear.9 mph72%30.32 "Hg10 mi
Weather by CustomWeather, © 2014

See weather overview